When you browse on this site, cookies collect data to enhance your experience and personalize the content and advertising you see.
Visit our Privacy Policy to learn more. By continuing to use the site, you agree to this use of cookies and data.
  • în România
  • Lista ţărilor
  • Pe 7 zile
  • Temperatura apei
  • Meteo pe hartă
  • Widget-uri
  • user-avatar
    Intrare

    Meteo pe oră la Pinsa

    Astăzi, 22 Septembrie, Duminică

    Timp Temperatura Precipitaţii Vânt Presiune Umiditate
    00:00 +31°C° 0 mm 3 m/s 733 mmHg 51%
    01:00 +31°C° 0 mm 3 m/s 733 mmHg 53%
    02:00 +30°C° 0 mm 3 m/s 733 mmHg 54%
    03:00 +30°C° 0 mm 3 m/s 733 mmHg 56%
    04:00 +29°C° 0 mm 3 m/s 733 mmHg 59%
    05:00 +29°C° 0 mm 3 m/s 733 mmHg 62%
    06:00 +28°C° 0 mm 3 m/s 733 mmHg 65%
    07:00 +30°C° 0 mm 3 m/s 734 mmHg 60%
    08:00 +33°C° 0 mm 4 m/s 734 mmHg 54%
    09:00 +34°C° 0 mm 4 m/s 735 mmHg 49%
    10:00 +36°C° 0 mm 4 m/s 734 mmHg 44%
    11:00 +38°C° 0 mm 4 m/s 734 mmHg 39%
    12:00 +39°C° 0 mm 3 m/s 733 mmHg 33%
    13:00 +40°C° 0 mm 2 m/s 733 mmHg 30%
    14:00 +40°C° 0 mm 1 m/s 732 mmHg 26%
    15:00 +38°C° 0 mm 0 m/s 731 mmHg 23%
    16:00 +37°C° 0 mm 0 m/s 731 mmHg 25%
    17:00 +40°C° 0 mm 1 m/s 731 mmHg 26%
    18:00 +39°C° 0 mm 1 m/s 731 mmHg 28%
    19:00 +37°C° 0 mm 1 m/s 731 mmHg 29%
    20:00 +37°C° 0 mm 2 m/s 732 mmHg 30%
    21:00 +37°C° 0 mm 2 m/s 732 mmHg 32%
    22:00 +36°C° 0 mm 3 m/s 732 mmHg 34%
    23:00 +35°C° 0 mm 3 m/s 732 mmHg 37%

    Mâine, 23 Septembrie, Luni

    Timp Temperatura Precipitaţii Vânt Presiune Umiditate
    00:00 +34°C° 0 mm 4 m/s 732 mmHg 40%
    01:00 +34°C° 0 mm 4 m/s 732 mmHg 42%
    02:00 +33°C° 0 mm 4 m/s 732 mmHg 44%
    03:00 +33°C° 0 mm 3 m/s 732 mmHg 46%
    04:00 +31°C° 0 mm 3 m/s 732 mmHg 48%
    05:00 +31°C° 0 mm 3 m/s 732 mmHg 49%
    06:00 +30°C° 0 mm 3 m/s 732 mmHg 51%
    07:00 +33°C° 0 mm 4 m/s 733 mmHg 49%
    08:00 +34°C° 0 mm 4 m/s 733 mmHg 47%
    09:00 +36°C° 0 mm 5 m/s 734 mmHg 46%
    10:00 +37°C° 0 mm 4 m/s 733 mmHg 40%
    11:00 +39°C° 0 mm 3 m/s 733 mmHg 35%
    12:00 +40°C° 0 mm 3 m/s 733 mmHg 29%
    13:00 +41°C° 0 mm 2 m/s 732 mmHg 26%
    14:00 +42°C° 0 mm 2 m/s 732 mmHg 22%
    15:00 +42°C° 0 mm 1 m/s 731 mmHg 19%
    16:00 +42°C° 0 mm 1 m/s 731 mmHg 20%
    17:00 +41°C° 0 mm 1 m/s 731 mmHg 22%
    18:00 +40°C° 0 mm 2 m/s 731 mmHg 24%
    19:00 +39°C° 0 mm 2 m/s 732 mmHg 26%
    20:00 +38°C° 0 mm 3 m/s 732 mmHg 28%
    21:00 +37°C° 0 mm 3 m/s 733 mmHg 29%
    22:00 +36°C° 0 mm 4 m/s 733 mmHg 37%
    23:00 +35°C° 0 mm 5 m/s 733 mmHg 45%

    Poimâine, 24 Septembrie, Marţi

    Timp Temperatura Precipitaţii Vânt Presiune Umiditate
    00:00 +34°C° 0 mm 6 m/s 733 mmHg 53%
    01:00 +33°C° 0 mm 6 m/s 733 mmHg 55%
    02:00 +33°C° 0 mm 6 m/s 733 mmHg 57%
    03:00 +32°C° 0 mm 5 m/s 732 mmHg 59%
    04:00 +32°C° 0 mm 5 m/s 733 mmHg 63%
    05:00 +30°C° 0 mm 5 m/s 733 mmHg 67%
    06:00 +29°C° 0 mm 5 m/s 733 mmHg 71%
    07:00 +30°C° 0 mm 6 m/s 734 mmHg 67%
    08:00 +32°C° 0 mm 7 m/s 734 mmHg 64%
    09:00 +33°C° 0 mm 7 m/s 735 mmHg 60%
    10:00 +35°C° 0 mm 7 m/s 734 mmHg 53%
    11:00 +38°C° 0 mm 6 m/s 734 mmHg 46%
    12:00 +40°C° 0 mm 6 m/s 733 mmHg 39%
    13:00 +40°C° 0 mm 4 m/s 733 mmHg 36%
    14:00 +40°C° 0 mm 3 m/s 732 mmHg 33%
    15:00 +40°C° 0 mm 2 m/s 732 mmHg 29%
    16:00 +39°C° 0.4 mm 3 m/s 732 mmHg 36%
    17:00 +37°C° 0.4 mm 5 m/s 731 mmHg 42%
    18:00 +35°C° 0.4 mm 6 m/s 731 mmHg 48%
    19:00 +34°C° 2.2 mm 5 m/s 732 mmHg 49%
    20:00 +33°C° 2.2 mm 4 m/s 733 mmHg 50%
    21:00 +31°C° 2.2 mm 3 m/s 733 mmHg 51%
    22:00 +32°C° 0 mm 4 m/s 733 mmHg 52%
    23:00 +30°C° 0 mm 4 m/s 733 mmHg 53%

    25 Septembrie, Miercuri

    Timp Temperatura Precipitaţii Vânt Presiune Umiditate
    00:00 +30°C° 0 mm 4 m/s 733 mmHg 55%
    01:00 +30°C° 0 mm 5 m/s 732 mmHg 59%
    02:00 +30°C° 0 mm 5 m/s 732 mmHg 63%
    03:00 +30°C° 0 mm 5 m/s 732 mmHg 67%
    04:00 +30°C° 0 mm 4 m/s 732 mmHg 69%
    05:00 +29°C° 0 mm 4 m/s 733 mmHg 70%
    06:00 +29°C° 0 mm 3 m/s 733 mmHg 72%
    07:00 +30°C° 0 mm 4 m/s 734 mmHg 68%
    08:00 +32°C° 0 mm 5 m/s 734 mmHg 65%
    09:00 +33°C° 0 mm 6 m/s 735 mmHg 61%
    10:00 +35°C° 0 mm 5 m/s 734 mmHg 55%
    11:00 +36°C° 0 mm 5 m/s 734 mmHg 49%
    12:00 +37°C° 0 mm 5 m/s 733 mmHg 43%
    13:00 +38°C° 0 mm 4 m/s 733 mmHg 40%
    14:00 +39°C° 0 mm 3 m/s 732 mmHg 36%
    15:00 +39°C° 0 mm 2 m/s 732 mmHg 33%
    16:00 +39°C° 0 mm 2 m/s 732 mmHg 34%
    17:00 +39°C° 0 mm 2 m/s 732 mmHg 35%
    18:00 +38°C° 0 mm 2 m/s 732 mmHg 36%
    19:00 +37°C° 0 mm 3 m/s 732 mmHg 37%
    20:00 +37°C° 0 mm 3 m/s 733 mmHg 39%
    21:00 +36°C° 0 mm 3 m/s 733 mmHg 41%
    22:00 +35°C° 0.2 mm 4 m/s 733 mmHg 44%
    23:00 +34°C° 0.2 mm 4 m/s 733 mmHg 47%

    26 Septembrie, Joi

    Timp Temperatura Precipitaţii Vânt Presiune Umiditate
    00:00 +33°C° 0.2 mm 5 m/s 733 mmHg 50%
    01:00 +32°C° 0 mm 4 m/s 733 mmHg 52%
    02:00 +32°C° 0 mm 4 m/s 733 mmHg 54%
    03:00 +30°C° 0 mm 3 m/s 732 mmHg 56%
    04:00 +30°C° 0 mm 3 m/s 733 mmHg 57%
    05:00 +30°C° 0 mm 3 m/s 733 mmHg 58%
    06:00 +30°C° 0 mm 3 m/s 733 mmHg 59%
    07:00 +31°C° 0 mm 3 m/s 734 mmHg 57%
    08:00 +33°C° 0 mm 4 m/s 734 mmHg 55%
    09:00 +33°C° 0 mm 4 m/s 735 mmHg 52%
    10:00 +35°C° 0 mm 4 m/s 734 mmHg 48%
    11:00 +37°C° 0 mm 4 m/s 734 mmHg 44%
    12:00 +39°C° 0 mm 5 m/s 734 mmHg 39%
    13:00 +40°C° 0 mm 4 m/s 733 mmHg 37%
    14:00 +40°C° 0 mm 4 m/s 732 mmHg 34%
    15:00 +41°C° 0 mm 4 m/s 732 mmHg 32%
    16:00 +40°C° 0 mm 4 m/s 732 mmHg 34%
    17:00 +38°C° 0 mm 4 m/s 732 mmHg 37%
    18:00 +37°C° 0 mm 5 m/s 732 mmHg 40%
    19:00 +37°C° 0 mm 5 m/s 732 mmHg 42%
    20:00 +36°C° 0 mm 6 m/s 733 mmHg 45%
    21:00 +35°C° 0 mm 6 m/s 733 mmHg 48%
    22:00 +34°C° 0 mm 6 m/s 733 mmHg 51%
    23:00 +33°C° 0 mm 6 m/s 733 mmHg 54%

    27 Septembrie, Vineri

    Timp Temperatura Precipitaţii Vânt Presiune Umiditate
    00:00 +33°C° 0 mm 6 m/s 733 mmHg 57%
    01:00 +32°C° 0 mm 5 m/s 733 mmHg 59%
    02:00 +32°C° 0 mm 5 m/s 733 mmHg 62%
    03:00 +30°C° 0 mm 4 m/s 733 mmHg 64%
    04:00 +30°C° 0 mm 4 m/s 733 mmHg 66%
    05:00 +29°C° 0 mm 4 m/s 733 mmHg 68%
    06:00 +29°C° 0 mm 4 m/s 733 mmHg 71%
    07:00 +30°C° 0 mm 4 m/s 734 mmHg 66%
    08:00 +32°C° 0 mm 5 m/s 734 mmHg 61%
    09:00 +34°C° 0 mm 5 m/s 735 mmHg 56%
    10:00 +35°C° 0 mm 4 m/s 734 mmHg 50%
    11:00 +37°C° 0 mm 3 m/s 734 mmHg 44%
    12:00 +38°C° 0 mm 2 m/s 733 mmHg 38%
    13:00 +39°C° 0 mm 2 m/s 733 mmHg 35%
    14:00 +39°C° 0 mm 2 m/s 732 mmHg 32%
    15:00 +40°C° 0 mm 2 m/s 731 mmHg 29%
    16:00 +39°C° 0 mm 2 m/s 731 mmHg 30%
    17:00 +39°C° 0 mm 3 m/s 731 mmHg 31%
    18:00 +38°C° 0 mm 3 m/s 731 mmHg 33%
    19:00 +37°C° 0 mm 4 m/s 732 mmHg 37%
    20:00 +36°C° 0 mm 4 m/s 732 mmHg 41%
    21:00 +35°C° 0 mm 4 m/s 733 mmHg 45%
    22:00 +35°C° 0 mm 4 m/s 733 mmHg 47%
    23:00 +34°C° 0 mm 5 m/s 733 mmHg 49%
    Arată mai mult